Check out our new BloomSky Weather System.

Active alerts

Houston, TX
  Details for Houston, TX Dense Fog Advisory


Thunder radar  blitzortung!


Rain radar more information rain snow radar


Visit our other weather sites:

Template documentation
and downloads

And another site



Weather Underground History page Text

Daily Summary for July 25, 2017 Units:  English    Metric   Both
« Previous Day
Next Day »
Daily Weekly Monthly Yearly Custom
  High: Low: Average:
Temperature: 95.5 °F 79.0 °F 86.9 °F
Dew Point: 79.3 °F 73.2 °F 76.8 °F
Humidity: 91 % 50 % 73 %
Wind Speed: 12.0 mph 0.0 mph 3.6 mph
Wind Gust: 14.0 mph - -
Wind:- - SSE
Pressure: 30.09 in 30.01 in -
Precipitation: 0.00 in    
Historical Graphs
 
 
Tabular Data for July 25, 2017
Time Temperature Dew Point Pressure Wind Wind Speed Wind Gust Humidity Rainfall Rate (Hourly)
00:01 82.2 °F 76.1 °F 30.01 in SSW 2.0 mph 4.0 mph 82 % 0.00 in
00:06 82.0 °F 76.3 °F 30.01 in South 2.0 mph 4.0 mph 83 % 0.00 in
00:11 82.0 °F 76.3 °F 30.01 in South 3.0 mph 6.0 mph 83 % 0.00 in
00:20 82.0 °F 76.3 °F 30.01 in SSE 3.0 mph 6.0 mph 83 % 0.00 in
00:25 82.0 °F 76.3 °F 30.01 in South 1.0 mph 5.0 mph 83 % 0.00 in
00:30 82.0 °F 76.3 °F 30.01 in SSE 3.0 mph 5.0 mph 83 % 0.00 in
00:35 82.0 °F 76.3 °F 30.01 in South 3.0 mph 5.0 mph 83 % 0.00 in
00:40 82.0 °F 76.3 °F 30.02 in SSE 2.0 mph 5.0 mph 83 % 0.00 in
00:45 81.9 °F 76.5 °F 30.02 in SE 2.0 mph 5.0 mph 84 % 0.00 in
00:50 81.9 °F 76.5 °F 30.02 in South 1.0 mph 5.0 mph 84 % 0.00 in
00:55 81.9 °F 76.5 °F 30.02 in ESE 3.0 mph 5.0 mph 84 % 0.00 in
01:00 81.9 °F 76.5 °F 30.02 in SSW 1.0 mph 5.0 mph 84 % 0.00 in
01:05 81.9 °F 76.5 °F 30.02 in SE 2.0 mph 4.0 mph 84 % 0.00 in
01:10 81.9 °F 76.5 °F 30.02 in SSE 2.0 mph 4.0 mph 84 % 0.00 in
01:15 81.9 °F 76.5 °F 30.02 in SSW 1.0 mph 4.0 mph 84 % 0.00 in
01:20 81.7 °F 76.3 °F 30.02 in South 1.0 mph 4.0 mph 84 % 0.00 in
01:25 81.7 °F 76.6 °F 30.03 in SSW 3.0 mph 4.0 mph 85 % 0.00 in
01:30 81.7 °F 76.6 °F 30.03 in SSE 2.0 mph 4.0 mph 85 % 0.00 in
01:35 81.7 °F 76.6 °F 30.03 in SE 2.0 mph 4.0 mph 85 % 0.00 in
01:40 81.7 °F 76.6 °F 30.02 in SSE 3.0 mph 4.0 mph 85 % 0.00 in
01:45 81.7 °F 76.6 °F 30.02 in South 1.0 mph 5.0 mph 85 % 0.00 in
01:50 81.7 °F 76.6 °F 30.02 in SSE 1.0 mph 5.0 mph 85 % 0.00 in
01:55 81.5 °F 76.5 °F 30.02 in SSE 3.0 mph 5.0 mph 85 % 0.00 in
02:00 81.5 °F 76.5 °F 30.02 in SSE 2.0 mph 5.0 mph 85 % 0.00 in
02:05 81.3 °F 76.5 °F 30.02 in South 2.0 mph 5.0 mph 85 % 0.00 in
02:10 81.3 °F 76.5 °F 30.02 in SSE 1.0 mph 5.0 mph 85 % 0.00 in
02:15 81.3 °F 76.6 °F 30.02 in South 2.0 mph 3.0 mph 86 % 0.00 in
02:20 81.3 °F 76.6 °F 30.02 in SE 1.0 mph 3.0 mph 86 % 0.00 in
02:25 81.1 °F 76.5 °F 30.02 in Calm   3.0 mph 86 % 0.00 in
02:30 81.1 °F 76.5 °F 30.02 in SE 2.0 mph 3.0 mph 86 % 0.00 in
02:35 81.1 °F 76.5 °F 30.02 in SSE 2.0 mph 5.0 mph 86 % 0.00 in
02:40 81.0 °F 76.5 °F 30.02 in SSE 4.0 mph 5.0 mph 86 % 0.00 in
02:45 81.0 °F 76.5 °F 30.02 in South 2.0 mph 5.0 mph 86 % 0.00 in
02:50 81.0 °F 76.5 °F 30.02 in SSW 2.0 mph 4.0 mph 86 % 0.00 in
02:55 81.0 °F 76.5 °F 30.02 in South 1.0 mph 4.0 mph 86 % 0.00 in
03:01 80.8 °F 76.5 °F 30.02 in South 1.0 mph 3.0 mph 87 % 0.00 in
03:06 80.8 °F 76.5 °F 30.02 in SSE 1.0 mph 3.0 mph 87 % 0.00 in
03:11 80.8 °F 76.5 °F 30.02 in SSE 1.0 mph 4.0 mph 87 % 0.00 in
03:16 80.8 °F 76.5 °F 30.02 in SSE 2.0 mph 4.0 mph 87 % 0.00 in
03:21 80.6 °F 76.3 °F 30.02 in SSW 3.0 mph 4.0 mph 87 % 0.00 in
03:26 80.6 °F 76.6 °F 30.02 in SSE 4.0 mph 4.0 mph 88 % 0.00 in
03:31 80.6 °F 76.6 °F 30.02 in South 3.0 mph 5.0 mph 88 % 0.00 in
03:36 80.6 °F 76.6 °F 30.02 in SSW 1.0 mph 5.0 mph 88 % 0.00 in
03:41 80.6 °F 76.3 °F 30.03 in South 2.0 mph 5.0 mph 87 % 0.00 in
03:46 80.6 °F 76.3 °F 30.03 in Calm   4.0 mph 87 % 0.00 in
03:51 80.4 °F 76.1 °F 30.02 in SSE 3.0 mph 5.0 mph 87 % 0.00 in
03:56 80.4 °F 76.1 °F 30.02 in SSE 3.0 mph 5.0 mph 87 % 0.00 in
04:01 80.4 °F 76.1 °F 30.02 in SSW 2.0 mph 5.0 mph 87 % 0.00 in
04:06 80.4 °F 76.1 °F 30.02 in South 1.0 mph 4.0 mph 87 % 0.00 in
04:11 80.4 °F 76.1 °F 30.02 in SSW 3.0 mph 4.0 mph 87 % 0.00 in
04:16 80.4 °F 76.1 °F 30.03 in SE 1.0 mph 4.0 mph 87 % 0.00 in
04:21 80.4 °F 76.1 °F 30.02 in SSE 1.0 mph 4.0 mph 87 % 0.00 in
04:26 80.4 °F 76.1 °F 30.02 in SSE 1.0 mph 4.0 mph 87 % 0.00 in
04:31 80.4 °F 76.5 °F 30.02 in South 2.0 mph 4.0 mph 88 % 0.00 in
04:38 80.4 °F 76.1 °F 30.02 in SSW 3.0 mph 4.0 mph 87 % 0.00 in
04:43 80.4 °F 76.1 °F 30.03 in South 3.0 mph 4.0 mph 87 % 0.00 in
04:49 80.4 °F 76.1 °F 30.03 in SSE 3.0 mph 4.0 mph 87 % 0.00 in
04:54 80.4 °F 76.1 °F 30.03 in SSE 1.0 mph 4.0 mph 87 % 0.00 in
04:59 80.2 °F 76.3 °F 30.03 in SSE 2.0 mph 4.0 mph 88 % 0.00 in
05:04 80.2 °F 76.3 °F 30.03 in SSW 1.0 mph 4.0 mph 88 % 0.00 in
05:09 80.2 °F 76.3 °F 30.03 in SSE 1.0 mph 3.0 mph 88 % 0.00 in
05:14 80.2 °F 76.3 °F 30.03 in SSW 1.0 mph 3.0 mph 88 % 0.00 in
05:19 80.1 °F 76.1 °F 30.03 in South 2.0 mph 3.0 mph 88 % 0.00 in
05:24 80.1 °F 76.1 °F 30.03 in SSE 1.0 mph 3.0 mph 88 % 0.00 in
05:29 80.1 °F 76.1 °F 30.03 in South 1.0 mph 3.0 mph 88 % 0.00 in
05:34 80.1 °F 76.1 °F 30.04 in Calm   3.0 mph 88 % 0.00 in
05:39 79.9 °F 75.9 °F 30.04 in SSE 1.0 mph 2.0 mph 88 % 0.00 in
05:44 79.9 °F 75.9 °F 30.04 in South 1.0 mph 2.0 mph 88 % 0.00 in
05:49 79.9 °F 75.9 °F 30.04 in South 1.0 mph 2.0 mph 88 % 0.00 in
05:54 79.9 °F 75.9 °F 30.04 in SSE 1.0 mph 2.0 mph 88 % 0.00 in
05:55 79.9 °F 75.9 °F 30.04 in SSE 1.0 mph 2.0 mph 88 % 0.00 in
06:00 79.9 °F 75.9 °F 30.04 in Calm   3.0 mph 88 % 0.00 in
06:01 79.9 °F 75.9 °F 30.04 in Calm   3.0 mph 88 % 0.00 in
06:06 79.9 °F 75.9 °F 30.04 in Calm   3.0 mph 88 % 0.00 in
06:11 79.9 °F 76.3 °F 30.04 in Calm   3.0 mph 89 % 0.00 in
06:16 79.7 °F 76.1 °F 30.04 in Calm   2.0 mph 89 % 0.00 in
06:21 79.5 °F 75.6 °F 30.04 in Calm   2.0 mph 88 % 0.00 in
06:26 79.5 °F 75.9 °F 30.05 in Calm   2.0 mph 89 % 0.00 in
06:31 79.5 °F 75.9 °F 30.05 in South 1.0 mph 2.0 mph 89 % 0.00 in
06:36 79.3 °F 75.7 °F 30.05 in Calm   2.0 mph 89 % 0.00 in
06:41 79.3 °F 75.7 °F 30.05 in Calm   2.0 mph 89 % 0.00 in
06:46 79.2 °F 75.6 °F 30.05 in Calm   1.0 mph 89 % 0.00 in
06:51 79.2 °F 75.9 °F 30.05 in Calm     90 % 0.00 in
06:56 79.0 °F 75.7 °F 30.05 in Calm     90 % 0.00 in
07:01 79.0 °F 75.7 °F 30.06 in Calm   1.0 mph 90 % 0.00 in
07:06 79.0 °F 76.1 °F 30.06 in Calm   1.0 mph 91 % 0.00 in
07:11 79.0 °F 76.1 °F 30.06 in Calm   1.0 mph 91 % 0.00 in
07:16 79.0 °F 76.1 °F 30.06 in Calm   2.0 mph 91 % 0.00 in
07:21 79.0 °F 76.1 °F 30.06 in Calm   2.0 mph 91 % 0.00 in
07:26 79.2 °F 76.3 °F 30.06 in SE 2.0 mph 2.0 mph 91 % 0.00 in
07:31 79.3 °F 76.5 °F 30.06 in SE 1.0 mph 2.0 mph 91 % 0.00 in
07:36 79.3 °F 76.1 °F 30.06 in ENE 1.0 mph 3.0 mph 90 % 0.00 in
07:41 79.7 °F 76.5 °F 30.07 in Calm   3.0 mph 90 % 0.00 in
07:46 80.1 °F 76.8 °F 30.07 in SE 1.0 mph 3.0 mph 90 % 0.00 in
07:52 80.4 °F 76.8 °F 30.07 in South 1.0 mph 3.0 mph 89 % 0.00 in
07:57 81.0 °F 77.4 °F 30.07 in SE 2.0 mph 3.0 mph 89 % 0.00 in
08:02 81.3 °F 77.0 °F 30.07 in SE 2.0 mph 7.0 mph 87 % 0.00 in
08:07 82.0 °F 77.4 °F 30.07 in SE 2.0 mph 7.0 mph 86 % 0.00 in
08:12 82.6 °F 77.5 °F 30.08 in SE 2.0 mph 7.0 mph 85 % 0.00 in
08:17 82.9 °F 77.5 °F 30.08 in SE 2.0 mph 5.0 mph 84 % 0.00 in
08:22 83.5 °F 78.1 °F 30.08 in South 3.0 mph 5.0 mph 84 % 0.00 in
08:27 83.8 °F 77.7 °F 30.08 in SSE 1.0 mph 4.0 mph 82 % 0.00 in
08:32 84.0 °F 77.9 °F 30.08 in ESE 4.0 mph 6.0 mph 82 % 0.00 in
08:37 84.4 °F 77.9 °F 30.08 in SW 4.0 mph 6.0 mph 81 % 0.00 in
08:42 84.7 °F 77.9 °F 30.08 in SSE 4.0 mph 6.0 mph 80 % 0.00 in
08:47 84.9 °F 78.1 °F 30.09 in ESE 6.0 mph 7.0 mph 80 % 0.00 in
08:52 85.3 °F 78.4 °F 30.09 in SSE 3.0 mph 7.0 mph 80 % 0.00 in
08:57 85.6 °F 78.4 °F 30.09 in SSE 5.0 mph 8.0 mph 79 % 0.00 in
09:02 85.8 °F 78.1 °F 30.09 in ESE 4.0 mph 8.0 mph 78 % 0.00 in
09:07 86.0 °F 78.8 °F 30.09 in SSE 5.0 mph 9.0 mph 79 % 0.00 in
09:12 86.4 °F 79.0 °F 30.09 in SSW 3.0 mph 9.0 mph 79 % 0.00 in
09:17 87.1 °F 79.3 °F 30.09 in ESE 6.0 mph 9.0 mph 78 % 0.00 in
09:22 87.1 °F 79.0 °F 30.09 in SE 5.0 mph 9.0 mph 77 % 0.00 in
09:27 87.1 °F 79.0 °F 30.09 in South 3.0 mph 9.0 mph 77 % 0.00 in
09:32 87.3 °F 78.8 °F 30.09 in SSE 4.0 mph 9.0 mph 76 % 0.00 in
09:37 87.4 °F 79.3 °F 30.09 in South 4.0 mph 10.0 mph 77 % 0.00 in
09:42 87.4 °F 78.1 °F 30.09 in South 3.0 mph 10.0 mph 74 % 0.00 in
09:47 87.3 °F 78.4 °F 30.09 in South 4.0 mph 10.0 mph 75 % 0.00 in
09:52 87.4 °F 78.6 °F 30.09 in South 3.0 mph 10.0 mph 75 % 0.00 in
09:57 87.4 °F 78.6 °F 30.09 in SE 3.0 mph 8.0 mph 75 % 0.00 in
10:02 87.6 °F 78.3 °F 30.09 in SSW 9.0 mph 9.0 mph 74 % 0.00 in
10:07 88.0 °F 77.9 °F 30.09 in SSE 6.0 mph 10.0 mph 72 % 0.00 in
10:12 88.2 °F 77.5 °F 30.09 in SE 5.0 mph 11.0 mph 71 % 0.00 in
10:17 88.3 °F 76.8 °F 30.09 in South 6.0 mph 13.0 mph 69 % 0.00 in
10:22 88.5 °F 77.9 °F 30.09 in SSE 5.0 mph 13.0 mph 71 % 0.00 in
10:27 89.1 °F 77.5 °F 30.09 in SSE 4.0 mph 13.0 mph 69 % 0.00 in
10:32 89.1 °F 76.6 °F 30.09 in SSE 3.0 mph 11.0 mph 67 % 0.00 in
10:37 89.2 °F 77.4 °F 30.09 in SSW 5.0 mph 11.0 mph 68 % 0.00 in
10:42 89.2 °F 77.4 °F 30.09 in SE 6.0 mph 11.0 mph 68 % 0.00 in
10:43 89.2 °F 76.8 °F 30.09 in SE 8.0 mph 11.0 mph 67 % 0.00 in
10:48 89.2 °F 76.5 °F 30.09 in SE 5.0 mph 11.0 mph 66 % 0.00 in
10:54 89.6 °F 78.1 °F 30.09 in SE 3.0 mph 13.0 mph 69 % 0.00 in
10:59 89.8 °F 76.5 °F 30.09 in SE 4.0 mph 13.0 mph 65 % 0.00 in
11:04 90.1 °F 77.2 °F 30.09 in SE 7.0 mph 13.0 mph 66 % 0.00 in
11:08 90.1 °F 78.1 °F 30.09 in SW 6.0 mph 10.0 mph 68 % 0.00 in
11:13 90.5 °F 77.2 °F 30.09 in SE 6.0 mph 10.0 mph 65 % 0.00 in
11:18 90.3 °F 75.9 °F 30.09 in SSE 4.0 mph 11.0 mph 63 % 0.00 in
11:23 90.3 °F 77.0 °F 30.09 in SSE 3.0 mph 11.0 mph 65 % 0.00 in
11:29 90.9 °F 77.5 °F 30.09 in SSW 2.0 mph 11.0 mph 65 % 0.00 in
11:30 91.0 °F 78.1 °F 30.09 in SSW 7.0 mph 11.0 mph 66 % 0.00 in
11:35 91.2 °F 76.8 °F 30.09 in SW 2.0 mph 11.0 mph 63 % 0.00 in
11:40 91.8 °F 78.3 °F 30.09 in SE 5.0 mph 11.0 mph 65 % 0.00 in
11:45 91.4 °F 77.5 °F 30.09 in South 3.0 mph 11.0 mph 64 % 0.00 in
11:50 91.0 °F 77.5 °F 30.09 in SW 1.0 mph 11.0 mph 65 % 0.00 in
11:55 91.2 °F 77.4 °F 30.08 in South 2.0 mph 9.0 mph 64 % 0.00 in
12:00 91.6 °F 76.3 °F 30.08 in SSE 5.0 mph 9.0 mph 61 % 0.00 in
12:05 91.6 °F 77.2 °F 30.08 in SSE 10.0 mph 11.0 mph 63 % 0.00 in
12:10 91.8 °F 76.8 °F 30.08 in ESE 5.0 mph 11.0 mph 62 % 0.00 in
12:15 92.1 °F 76.6 °F 30.08 in SSE 6.0 mph 11.0 mph 61 % 0.00 in
12:20 92.3 °F 76.8 °F 30.08 in SSE 6.0 mph 12.0 mph 61 % 0.00 in
12:25 92.1 °F 76.3 °F 30.08 in SSW 4.0 mph 12.0 mph 60 % 0.00 in
12:30 92.1 °F 75.2 °F 30.08 in South 6.0 mph 12.0 mph 58 % 0.00 in
12:35 92.5 °F 76.1 °F 30.08 in SE 6.0 mph 10.0 mph 59 % 0.00 in
12:40 92.7 °F 76.3 °F 30.08 in SSW 4.0 mph 10.0 mph 59 % 0 in
12:45 92.7 °F 76.3 °F 30.08 in SSE 4.0 mph 11.0 mph 59 % 0.00 in
12:50 92.7 °F 76.3 °F 30.08 in SSE 3.0 mph 11.0 mph 59 % 0.00 in
12:55 92.5 °F 75.6 °F 30.08 in SSE 3.0 mph 11.0 mph 58 % 0.00 in
13:00 92.7 °F 76.8 °F 30.07 in SW 1.0 mph 7.0 mph 60 % 0.00 in
13:05 92.7 °F 76.3 °F 30.07 in SSW 3.0 mph 10.0 mph 59 % 0.00 in
13:10 92.7 °F 76.8 °F 30.07 in SE 5.0 mph 10.0 mph 60 % 0.00 in
13:15 93.0 °F 77.0 °F 30.07 in ESE 4.0 mph 10.0 mph 60 % 0.00 in
13:20 93.6 °F 77.5 °F 30.08 in South 5.0 mph 11.0 mph 60 % 0.00 in
13:22 93.6 °F 76.6 °F 30.07 in SSE 5.0 mph 11.0 mph 58 % 0.00 in
13:27 93.2 °F 76.6 °F 30.07 in South 6.0 mph 11.0 mph 59 % 0.00 in
13:32 93.2 °F 77.7 °F 30.07 in SSE 8.0 mph 11.0 mph 61 % 0.00 in
13:37 93.0 °F 76.1 °F 30.07 in SE 5.0 mph 9.0 mph 58 % 0.00 in
13:42 93.4 °F 77.4 °F 30.07 in SE 4.0 mph 10.0 mph 60 % 0.00 in
13:47 93.7 °F 77.2 °F 30.06 in South 4.0 mph 13.0 mph 59 % 0.00 in
13:52 93.6 °F 75.6 °F 30.07 in SE 8.0 mph 13.0 mph 56 % 0.00 in
13:57 93.2 °F 76.6 °F 30.07 in SSW 3.0 mph 13.0 mph 59 % 0.00 in
14:02 92.8 °F 75.9 °F 30.07 in SSW 4.0 mph 12.0 mph 58 % 0.00 in
14:07 92.8 °F 76.5 °F 30.07 in SW 4.0 mph 12.0 mph 59 % 0.00 in
14:12 93.6 °F 75.0 °F 30.06 in East 5.0 mph 12.0 mph 55 % 0.00 in
14:17 93.9 °F 76.3 °F 30.06 in ESE 10.0 mph 12.0 mph 57 % 0.00 in
14:22 94.1 °F 75.9 °F 30.06 in SE 4.0 mph 12.0 mph 56 % 0.00 in
14:27 93.6 °F 74.5 °F 30.06 in SE 3.0 mph 12.0 mph 54 % 0.00 in
14:32 93.6 °F 75.0 °F 30.06 in South 4.0 mph 10.0 mph 55 % 0.00 in
14:37 93.7 °F 75.2 °F 30.06 in SSE 6.0 mph 11.0 mph 55 % 0.00 in
14:42 93.7 °F 75.2 °F 30.06 in South 3.0 mph 11.0 mph 55 % 0.00 in
14:47 94.1 °F 75.9 °F 30.06 in South 4.0 mph 11.0 mph 56 % 0.00 in
14:52 94.3 °F 75.6 °F 30.06 in South 4.0 mph 11.0 mph 55 % 0.00 in
14:57 94.6 °F 77.0 °F 30.05 in ESE 3.0 mph 11.0 mph 57 % 0.00 in
15:02 95.2 °F 77.0 °F 30.05 in SE 5.0 mph 11.0 mph 56 % 0.00 in
15:07 95.4 °F 75.6 °F 30.05 in SE 8.0 mph 10.0 mph 53 % 0.00 in
15:12 95.2 °F 73.6 °F 30.04 in South 6.0 mph 8.0 mph 50 % 0.00 in
15:17 95.4 °F 73.8 °F 30.04 in SE 6.0 mph 12.0 mph 50 % 0.00 in
15:22 95.4 °F 75.6 °F 30.04 in SSE 7.0 mph 12.0 mph 53 % 0.00 in
15:27 95.4 °F 75.0 °F 30.04 in SSE 5.0 mph 12.0 mph 52 % 0.00 in
15:29 95.5 °F 76.3 °F 30.04 in South 6.0 mph 12.0 mph 54 % 0.00 in
15:34 94.8 °F 74.5 °F 30.04 in SE 4.0 mph 12.0 mph 52 % 0.00 in
15:39 94.8 °F 76.6 °F 30.04 in ESE 1.0 mph 12.0 mph 56 % 0.00 in
15:45 95.0 °F 76.3 °F 30.04 in SSE 5.0 mph 10.0 mph 55 % 0.00 in
15:50 95.2 °F 75.9 °F 30.04 in SSE 3.0 mph 8.0 mph 54 % 0.00 in
15:55 94.6 °F 77.0 °F 30.04 in SE 7.0 mph 9.0 mph 57 % 0.00 in
16:00 94.6 °F 75.9 °F 30.04 in SE 5.0 mph 11.0 mph 55 % 0.00 in
16:05 94.8 °F 76.1 °F 30.03 in SE 5.0 mph 11.0 mph 55 % 0.00 in
16:10 94.8 °F 75.6 °F 30.03 in SE 4.0 mph 11.0 mph 54 % 0.00 in
16:15 94.6 °F 75.9 °F 30.03 in SE 7.0 mph 11.0 mph 55 % 0.00 in
16:20 94.6 °F 74.3 °F 30.03 in SSE 6.0 mph 11.0 mph 52 % 0.00 in
16:25 94.6 °F 74.8 °F 30.03 in SE 4.0 mph 11.0 mph 53 % 0.00 in
16:30 94.8 °F 74.5 °F 30.03 in SSE 6.0 mph 12.0 mph 52 % 0.00 in
16:35 94.8 °F 73.9 °F 30.02 in SE 8.0 mph 12.0 mph 51 % 0.00 in
16:40 94.8 °F 73.2 °F 30.02 in SSE 3.0 mph 12.0 mph 50 % 0.00 in
16:45 95.0 °F 74.7 °F 30.02 in SE 9.0 mph 12.0 mph 52 % 0.00 in
16:50 94.8 °F 75.6 °F 30.02 in SSE 5.0 mph 11.0 mph 54 % 0.00 in
16:55 94.8 °F 75.6 °F 30.02 in SSE 7.0 mph 11.0 mph 54 % 0.00 in
17:00 94.3 °F 76.6 °F 30.02 in South 5.0 mph 11.0 mph 57 % 0.00 in
17:05 93.9 °F 75.7 °F 30.01 in SSE 3.0 mph 11.0 mph 56 % 0.00 in
17:10 94.5 °F 76.3 °F 30.01 in ESE 6.0 mph 11.0 mph 56 % 0.00 in
17:15 94.6 °F 77.0 °F 30.02 in SSE 6.0 mph 11.0 mph 57 % 0.00 in
17:20 94.3 °F 77.2 °F 30.01 in SE 12.0 mph 13.0 mph 58 % 0.00 in
17:25 93.6 °F 77.0 °F 30.01 in SE 5.0 mph 13.0 mph 59 % 0.00 in
17:30 93.2 °F 77.2 °F 30.01 in SSE 7.0 mph 13.0 mph 60 % 0.00 in
17:35 93.4 °F 77.4 °F 30.01 in ESE 5.0 mph 12.0 mph 60 % 0.00 in
17:40 93.4 °F 76.8 °F 30.01 in SSE 8.0 mph 11.0 mph 59 % 0.00 in
17:45 93.4 °F 76.8 °F 30.01 in SE 3.0 mph 11.0 mph 59 % 0.00 in
17:50 93.6 °F 77.5 °F 30.01 in SSE 2.0 mph 10.0 mph 60 % 0.00 in
17:55 93.4 °F 77.4 °F 30.01 in South 6.0 mph 10.0 mph 60 % 0.00 in
18:00 93.4 °F 76.8 °F 30.01 in South 4.0 mph 9.0 mph 59 % 0.00 in
18:05 93.0 °F 77.0 °F 30.01 in SSE 3.0 mph 10.0 mph 60 % 0.00 in
18:10 93.0 °F 77.0 °F 30.01 in ENE 9.0 mph 11.0 mph 60 % 0.00 in
18:15 93.0 °F 77.0 °F 30.01 in South 7.0 mph 13.0 mph 60 % 0.00 in
18:20 92.7 °F 77.2 °F 30.01 in SSW 5.0 mph 13.0 mph 61 % 0.00 in
18:25 92.3 °F 76.5 °F 30.01 in South 6.0 mph 13.0 mph 60 % 0.00 in
18:30 92.3 °F 77.4 °F 30.01 in SSW 4.0 mph 10.0 mph 62 % 0.00 in
18:35 92.1 °F 77.2 °F 30.01 in SSE 6.0 mph 11.0 mph 62 % 0.00 in
18:40 91.9 °F 77.0 °F 30.01 in South 5.0 mph 11.0 mph 62 % 0.00 in
18:45 91.9 °F 76.6 °F 30.01 in SE 5.0 mph 12.0 mph 61 % 0.00 in
18:50 91.8 °F 76.8 °F 30.02 in SSW 4.0 mph 12.0 mph 62 % 0.00 in
18:55 91.8 °F 77.4 °F 30.02 in South 2.0 mph 12.0 mph 63 % 0.00 in
19:00 91.8 °F 77.4 °F 30.02 in SE 5.0 mph 12.0 mph 63 % 0.00 in
19:05 91.6 °F 77.7 °F 30.02 in SE 4.0 mph 12.0 mph 64 % 0.00 in
19:10 91.6 °F 77.7 °F 30.02 in South 3.0 mph 12.0 mph 64 % 0.00 in
19:15 91.4 °F 77.0 °F 30.02 in SSE 5.0 mph 12.0 mph 63 % 0.00 in
19:20 91.2 °F 77.4 °F 30.02 in South 7.0 mph 10.0 mph 64 % 0.00 in
19:25 91.2 °F 77.7 °F 30.02 in ESE 5.0 mph 12.0 mph 65 % 0.00 in
19:30 90.9 °F 77.5 °F 30.02 in SSW 6.0 mph 12.0 mph 65 % 0.00 in
19:35 90.3 °F 77.9 °F 30.02 in South 6.0 mph 12.0 mph 67 % 0.00 in
19:36 90.3 °F 77.4 °F 30.02 in SE 6.0 mph 12.0 mph 66 % 0.00 in
19:41 90.1 °F 77.7 °F 30.02 in SSE 4.0 mph 10.0 mph 67 % 0.00 in
19:46 90.0 °F 77.5 °F 30.02 in South 6.0 mph 10.0 mph 67 % 0.00 in
19:51 89.6 °F 77.5 °F 30.03 in SSE 4.0 mph 10.0 mph 68 % 0.00 in
19:56 89.4 °F 77.9 °F 30.03 in SE 4.0 mph 10.0 mph 69 % 0.00 in
20:01 89.2 °F 78.1 °F 30.03 in SE 7.0 mph 10.0 mph 70 % 0.00 in
20:06 88.9 °F 77.9 °F 30.03 in SE 3.0 mph 10.0 mph 70 % 0.00 in
20:11 88.7 °F 78.1 °F 30.03 in SSE 7.0 mph 8.0 mph 71 % 0.00 in
20:16 88.5 °F 77.9 °F 30.03 in ESE 6.0 mph 8.0 mph 71 % 0.00 in
20:21 88.3 °F 77.7 °F 30.04 in South 4.0 mph 9.0 mph 71 % 0.00 in
20:26 88.2 °F 77.5 °F 30.04 in SE 4.0 mph 9.0 mph 71 % 0.00 in
20:31 88.2 °F 77.9 °F 30.04 in SE 4.0 mph 10.0 mph 72 % 0.00 in
20:36 88.0 °F 77.9 °F 30.04 in South 5.0 mph 10.0 mph 72 % 0.00 in
20:41 87.8 °F 77.7 °F 30.04 in South 3.0 mph 10.0 mph 72 % 0.00 in
20:46 87.6 °F 77.9 °F 30.05 in SE 4.0 mph 9.0 mph 73 % 0.00 in
20:51 87.6 °F 78.3 °F 30.05 in SE 3.0 mph 10.0 mph 74 % 0.00 in
20:56 87.6 °F 78.3 °F 30.05 in ESE 4.0 mph 10.0 mph 74 % 0.00 in
21:01 87.4 °F 78.6 °F 30.05 in SE 8.0 mph 10.0 mph 75 % 0.00 in
21:06 87.3 °F 78.4 °F 30.05 in SE 10.0 mph 10.0 mph 75 % 0.00 in
21:11 87.1 °F 78.6 °F 30.05 in SSE 6.0 mph 12.0 mph 76 % 0.00 in
21:16 86.7 °F 77.4 °F 30.06 in SE 6.0 mph 14.0 mph 74 % 0.00 in
21:18 86.7 °F 77.4 °F 30.05 in SE 4.0 mph 14.0 mph 74 % 0.00 in
21:23 86.5 °F 77.7 °F 30.05 in SSE 4.0 mph 14.0 mph 75 % 0.00 in
21:28 86.4 °F 77.5 °F 30.05 in SE 4.0 mph 14.0 mph 75 % 0.00 in
21:33 86.2 °F 77.4 °F 30.05 in SSE 5.0 mph 14.0 mph 75 % 0.00 in
21:38 86.0 °F 77.2 °F 30.06 in South 6.0 mph 10.0 mph 75 % 0.00 in
21:43 85.8 °F 77.4 °F 30.06 in SE 3.0 mph 11.0 mph 76 % 0.00 in
21:48 85.6 °F 77.2 °F 30.06 in SE 5.0 mph 11.0 mph 76 % 0.00 in
21:53 85.6 °F 77.2 °F 30.06 in SSE 2.0 mph 11.0 mph 76 % 0.00 in
21:58 85.5 °F 77.0 °F 30.06 in SE 4.0 mph 8.0 mph 76 % 0.00 in
22:03 85.5 °F 77.4 °F 30.06 in ESE 5.0 mph 6.0 mph 77 % 0.00 in
22:08 85.3 °F 77.2 °F 30.07 in ESE 5.0 mph 11.0 mph 77 % 0.00 in
22:13 85.3 °F 77.7 °F 30.07 in ESE 3.0 mph 11.0 mph 78 % 0.00 in
22:18 85.3 °F 77.7 °F 30.07 in SSE 2.0 mph 11.0 mph 78 % 0.00 in
22:23 84.9 °F 77.7 °F 30.08 in ESE 5.0 mph 8.0 mph 79 % 0.00 in
22:28 84.7 °F 77.5 °F 30.08 in SSE 5.0 mph 7.0 mph 79 % 0.00 in
22:33 84.7 °F 77.9 °F 30.08 in SSE 8.0 mph 9.0 mph 80 % 0.00 in
22:38 84.6 °F 77.7 °F 30.08 in SSE 6.0 mph 12.0 mph 80 % 0.00 in
22:43 84.4 °F 77.5 °F 30.08 in SSE 3.0 mph 12.0 mph 80 % 0.00 in
22:46 84.4 °F 77.5 °F 30.08 in SSE 2.0 mph 12.0 mph 80 % 0.00 in
22:51 84.4 °F 77.9 °F 30.08 in SSE 7.0 mph 11.0 mph 81 % 0.00 in
22:56 84.0 °F 77.5 °F 30.08 in ESE 4.0 mph 9.0 mph 81 % 0.00 in
23:01 84.0 °F 77.5 °F 30.09 in SSE 4.0 mph 9.0 mph 81 % 0.00 in
23:06 84.0 °F 77.5 °F 30.09 in SSE 4.0 mph 9.0 mph 81 % 0.00 in
23:11 83.8 °F 77.7 °F 30.09 in SE 4.0 mph 7.0 mph 82 % 0.00 in
23:16 83.8 °F 77.7 °F 30.09 in SE 2.0 mph 6.0 mph 82 % 0.00 in
23:21 83.7 °F 77.5 °F 30.09 in SE 2.0 mph 6.0 mph 82 % 0.00 in
23:26 83.7 °F 77.5 °F 30.09 in ESE 4.0 mph 7.0 mph 82 % 0.00 in
23:31 83.7 °F 77.9 °F 30.09 in SSE 5.0 mph 7.0 mph 83 % 0.00 in
23:36 83.7 °F 77.9 °F 30.09 in SSE 2.0 mph 10.0 mph 83 % 0.00 in
23:41 83.7 °F 78.3 °F 30.09 in SSE 4.0 mph 10.0 mph 84 % 0.00 in
23:46 83.7 °F 78.3 °F 30.08 in SSE 3.0 mph 10.0 mph 84 % 0.00 in
23:51 83.7 °F 78.3 °F 30.08 in SSE 3.0 mph 8.0 mph 84 % 0.00 in
23:56 83.5 °F 78.1 °F 30.08 in SE 4.0 mph 7.0 mph 84 % 0.00 in
Spring, Texas: Villages of Bridgestone
Compliments of Weather Underground - 2.75 mb

Script developed by  Jim McMurry - jmcmurry@mwt.net Adapted for the template by  Wim van der Kuil - Leuven-Template.eu

You find our weather info also at:

UK Metoffice

WeatherCloud

Weather Underground

Mid-South Weather Network

AWEKAS

Citizen Weather Observer Program (CWOP)

HAMweather, WeatherForYou, PWS Weather

Equipment we use:

Weather-station
Davis Vantage Vue

Weather-program
Meteohub

Weather-server
Debian 7.9 x86 (Guest)

Provider
DreamHost

Davis Vantage Vue

Meteohub

Debian 7.9 x86 (Guest)

DreamHost